SOYUZ-MS 16 (45476 NORAD) Tracking and Keplerian Element Data

This shows tracking and keplerian element data for the satellite.

Feedback or suggestion? Click here.




ElementValue
Catalog45476
NameSOYUZ-MS 16
Epoch Orbit742
Epoch Day148.34098264
Epoch Year2020
RAAN91.6454
Inclination51.6436
Eccentricity0.000256
Argument of Perigee358.6359
Mean Anonmoly138.6822
Mean Motion15.49397476
Decay Rate1.729E-05
L11 45476U 20023A 20148.34098264 .00001729 00000-0 39024-4 0 9995
L22 45476 51.6436 91.6454 0002560 358.6359 138.6822 15.49397476 7422

Live tracking and technical data element details for SOYUZ-MS 16 (NORAD 45476). SOYUZ-MS 16 can be tracked NOW for your location showing map with azimuth and elevation plus other details from your city location.

Track the satellite on the map from your city or location and see movement details for azimuth, elevation, latitude, longitude, range, height, and movement on the map or in text.







IsCatalogInMostPopularTable: catalog: 45476, numindb: 33
Update: records affected: 1



GetName: 45476 SOYUZ-MS 16

Hit Count: updated at: Sat, 30 May 2020 16:02:55 GMT